Location: ??????
(30.5519°N, 47.7720°E)
Time: 08:46:29
(UTC+00:00)

MOS 1 Rocket - Visible Passes

Search period start: 09 May 2021 00:00
Search period end: 19 May 2021 00:00
Orbit: 614 x 830 km, 97.4° (Epoch: 08 May)

Date Brightness Start Highest point End Pass type
(mag) Time Alt. Az. Time Alt. Az. Time Alt. Az.
09 May 6.5 00:35:55 10° ESE 00:39:28 19° ENE 00:42:55 10° NNE visible
10 May 4.3 01:22:54 10° SSE 01:28:07 59° ENE 01:33:06 10° N visible
11 May 6.5 00:35:37 10° ESE 00:39:08 18° ENE 00:42:31 10° NNE visible
12 May 4.3 01:22:36 10° SSE 01:27:47 60° ENE 01:32:42 10° N visible
13 May 6.4 00:35:18 10° ESE 00:38:46 18° ENE 00:42:07 10° NNE visible
14 May 4.2 01:22:18 10° SSE 01:27:26 60° ENE 01:32:18 10° N visible
15 May 6.4 00:34:58 10° ESE 00:38:24 18° ENE 00:41:43 10° NNE visible
16 May 4.2 01:22:00 10° SSE 01:27:05 61° ENE 01:31:53 10° N visible
17 May 6.4 00:34:40 10° ESE 00:38:02 18° ENE 00:41:18 10° NNE visible
18 May 4.1 01:21:41 10° SSE 01:26:43 61° ENE 01:31:28 10° N visible
